Stations météo

réclame
Mon MeteoGroup
Braunschweig, Allemagne (10348): Température de l'air & dewpoint: 05.12.2019 02:00:00 - 11.12.2019 02:00:00 (CET)Braunschweig, Allemagne (10348): Température de l'air 5cm & Température de l'air -5cm: 05.12.2019 02:00:00 - 11.12.2019 02:00:00 (CET)Braunschweig, Allemagne (10348): Température de l'air -20cm & Température de l'air -100cm: 05.12.2019 02:00:00 - 11.12.2019 02:00:00 (CET)Braunschweig, Allemagne (10348): Vitesse du vent & gusts: 05.12.2019 02:00:00 - 11.12.2019 02:00:00 (CET)Braunschweig, Allemagne (10348): Direction du vent: 05.12.2019 02:00:00 - 11.12.2019 02:00:00 (CET)Braunschweig, Allemagne (10348): reduced air pressure: 05.12.2019 02:00:00 - 11.12.2019 02:00:00 (CET)Braunschweig, Allemagne (10348): visibility: 05.12.2019 02:00:00 - 11.12.2019 02:00:00 (CET)Braunschweig, Allemagne (10348): Ensoleillement: 05.12.2019 02:00:00 - 11.12.2019 02:00:00 (CET)Braunschweig, Allemagne (10348): Quantités de précipitations: 05.12.2019 02:00:00 - 11.12.2019 02:00:00 (CET)
Date & Time tt [°C] td [°C] tt 5cm [°C] tt -5cm [°C] tt -20cm [°C] tt -100cm [°C] ff [km/h] ff [knt] fx [km/h] fx [knt] dd ppp [hPa] vv [km] sd [min] rr [mm]
11.12.2019 02:00:00 5,4 -1,3 4,6 2,4 3,7 7,3 21 11 40 21 S 1014,1 49 0 0,0
11.12.2019 01:00:00 5,1 -1,1 4,4 2,2 3,7 7,3 19 11 40 21 S 1015,2 69 0 0,0
11.12.2019 00:00:00 5,1 -1,3 4,2 1,9 3,8 7,3 22 12 38 21 S 1016,4 70 0 0,0
10.12.2019 23:00:00 4,8 -1,3 3,8 1,7 3,8 7,3 19 10 34 18 S 1017,3 60 0 0,0
10.12.2019 22:00:00 4,8 -1,2 3,7 1,5 3,9 7,3 16 9 34 19 S 1018,3 60 0 0,0
10.12.2019 21:00:00 4,3 -1,0 3,3 1,1 4,1 7,3 19 10 31 17 S 1019,0 48 0 0,0
10.12.2019 20:00:00 3,0 -0,9 1,2 0,9 4,3 7,3 12 6 25 13 S 1020,4 40 0 0,0
10.12.2019 19:00:00 3,1 -1,0 1,2 1,4 4,5 7,3 13 7 27 14 SSE 1021,2 40 0 0,0
10.12.2019 18:00:00 3,8 -0,5 2,0 1,9 4,6 7,3 13 7 21 12 S 1021,9 41 0 0,0
10.12.2019 17:00:00 3,7 -0,2 1,7 2,6 4,7 7,3 9 5 16 9 S 1022,7 44 0 0,0
10.12.2019 16:00:00 4,5 0,5 2,7 3,5 4,7 7,3 9 5 19 10 SSW 1023,3 42 18 0,0
10.12.2019 15:00:00 5,3 0,4 4,1 4,4 4,6 7,3 11 6 23 12 SSW 1023,6 44 59 0,0
10.12.2019 14:00:00 5,7 1,1 5,1 5,2 4,4 7,3 12 6 29 15 SSW 1023,8 46 58 0,0
10.12.2019 13:00:00 5,3 0,8 5,5 4,9 4,3 7,3 18 10 29 16 SW 1024,4 27 52 0,0
10.12.2019 12:00:00 4,9 1,0 5,0 4,0 4,2 7,3 14 8 24 13 SW 1024,6 28 60 0,0
10.12.2019 11:00:00 4,1 0,9 4,3 2,7 4,2 7,3 15 8 26 14 SW 1024,4 19 46 0,0
10.12.2019 10:00:00 2,9 0,4 1,9 2,0 4,3 7,3 11 6 21 11 SW 1024,0 37 37 0,0
10.12.2019 09:00:00 2,5 0,3 0,9 2,0 4,4 7,3 11 6 18 10 WSW 1023,6 39 0 0,0
10.12.2019 08:00:00 3,5 0,9 2,7 2,7 4,5 7,3 10 5 25 14 W 1022,8 35 0 0,0
10.12.2019 07:00:00 3,5 1,0 2,7 2,5 4,5 7,3 13 7 27 15 W 1021,6 33 0 0,0
10.12.2019 06:00:00 3,9 1,1 3,0 2,5 4,6 7,3 18 10 32 18 W 1020,5 40 0 0,0
10.12.2019 05:00:00 3,7 0,8 2,7 2,1 4,8 7,3 16 9 33 18 W 1019,7 40 0 0,0
10.12.2019 04:00:00 3,7 0,7 2,3 2,4 4,9 7,3 17 9 31 17 W 1018,4 38 0 0,0
10.12.2019 03:00:00 4,0 0,7 2,2 2,7 5,0 7,2 19 10 41 22 W 1017,3 38 0 0,1
10.12.2019 02:00:00 4,2 1,0 2,7 2,7 5,2 7,2 22 12 37 20 W 1016,2 19 0 0,1
10.12.2019 01:00:00 4,1 0,9 2,5 2,9 5,3 7,2 18 10 37 20 W 1014,6 38 0 0,0
10.12.2019 00:00:00 4,5 1,0 3,0 3,2 5,5 7,2 19 11 31 17 W 1013,3 36 0 0,0
09.12.2019 23:00:00 4,8 1,7 3,1 3,7 5,6 7,2 18 10 31 17 W 1011,8 34 0 0,0
09.12.2019 22:00:00 5,3 3,0 3,9 4,2 5,7 7,2 17 9 34 19 W 1010,2 42 0 0,0
09.12.2019 21:00:00 5,7 3,8 4,1 4,8 5,7 7,2 19 10 36 19 W 1008,1 43 0 0,0
09.12.2019 20:00:00 6,2 4,1 5,0 5,2 5,7 7,2 18 10 38 21 WNW 1006,0 31 0 0,1
09.12.2019 19:00:00 6,5 4,5 5,5 5,3 5,8 7,2 15 8 24 13 W 1004,0 29 0 0,0
09.12.2019 18:00:00 6,3 4,1 5,0 5,2 5,8 7,2 16 8 29 16 W 1002,5 36 0 0,0
09.12.2019 17:00:00 6,2 4,1 5,0 5,3 5,8 7,2 15 8 30 16 W 1000,9 46 0 0,0
09.12.2019 16:00:00 6,4 4,8 5,5 6,0 5,7 7,2 19 11 31 17 W 999,5 70 0 0,0
09.12.2019 15:00:00 6,5 5,1 5,8 6,3 5,6 7,2 15 8 31 17 WSW 998,0 18 0 0,5
09.12.2019 14:00:00 8,1 4,0 7,1 6,4 5,5 7,2 22 12 36 20 SW 996,8 70 0 0,0
09.12.2019 13:00:00 8,6 3,6 8,2 6,4 5,4 7,2 23 12 46 25 SSW 996,3 70 0 0,0
09.12.2019 12:00:00 8,5 3,3 8,3 5,9 5,3 7,2 25 13 46 25 SSW 996,3 70 0 0,1
09.12.2019 11:00:00 8,2 3,1 7,4 5,2 5,3 7,2 21 12 50 27 SSW 996,7 70 30 0,0
09.12.2019 10:00:00 8,1 2,8 7,7 4,8 5,3 7,2 20 11 33 18 SSW 996,5 70 39 0,0
09.12.2019 09:00:00 7,1 2,9 6,4 4,1 5,3 7,1 12 7 27 14 S 996,8 70 0 0,0
09.12.2019 08:00:00 6,9 2,2 5,1 4,0 5,4 7,1 15 8 37 20 SSW 996,7 70 0 0,0
09.12.2019 07:00:00 6,7 2,3 5,0 4,2 5,5 7,1 15 8 27 15 SSW 996,7 70 0 0,0
09.12.2019 06:00:00 6,2 3,0 4,3 4,7 5,5 7,1 24 13 40 22 SW 997,0 58 0 0,3
09.12.2019 05:00:00 7,3 2,2 6,5 4,6 5,5 7,1 14 8 32 17 SSW 997,2 70 0 0,0
09.12.2019 04:00:00 7,4 1,7 6,5 4,5 5,6 7,1 20 11 43 23 SW 997,2 70 0 0,0
09.12.2019 03:00:00 7,7 2,1 6,6 4,8 5,6 7,1 18 10 45 25 SW 997,6 70 0 0,0
09.12.2019 02:00:00 8,2 2,6 7,2 5,0 5,7 7,1 26 14 45 24 SW 996,9 70 0 0,0
09.12.2019 01:00:00 8,3 3,2 7,5 4,8 5,7 7,1 22 12 36 20 SW 996,7 68 0 0,0
09.12.2019 00:00:00 8,2 3,4 7,0 4,5 5,8 7,1 16 9 33 18 SSW 996,5 43 0 0,0
08.12.2019 23:00:00 8,3 3,2 6,2 4,6 6,0 7,1 18 10 35 19 WSW 997,0 42 0 0,0
08.12.2019 22:00:00 8,2 3,5 6,7 4,8 6,1 7,1 24 13 36 19 WSW 997,2 40 0 0,0
08.12.2019 21:00:00 8,2 3,6 6,2 5,2 6,2 7,1 16 9 36 19 WSW 997,6 38 0 0,0
08.12.2019 20:00:00 8,6 4,1 6,8 5,7 6,2 7,0 19 11 48 26 WSW 997,9 52 0 0,0
08.12.2019 19:00:00 9,7 4,7 7,9 6,3 6,2 7,0 26 14 49 26 WSW 997,8 60 0 0,0
08.12.2019 18:00:00 10,0 5,9 8,3 6,8 6,2 7,0 24 13 36 19 WSW 997,6 70 0 0,0
08.12.2019 17:00:00 9,6 8,3 8,6 7,2 6,1 7,0 15 8 48 26 SW 997,9 70 0 0,2
08.12.2019 16:00:00 10,2 7,4 8,5 7,6 6,0 7,0 27 15 48 26 WSW 997,7 12 0 0,0
08.12.2019 15:00:00 10,1 7,9 9,4 7,6 5,8 7,0 22 12 44 24 SSW 998,0 70 0 0,0
08.12.2019 14:00:00 10,4 7,2 9,2 7,5 5,7 7,0 27 15 44 24 SSW 998,2 34 0 0,0
08.12.2019 13:00:00 10,7 6,3 10,0 7,0 5,5 7,0 22 12 46 25 SSW 998,6 70 0 0,0
08.12.2019 12:00:00 10,3 5,8 9,7 6,6 5,4 7,0 26 14 49 26 SW 999,1 70 0 0,0
08.12.2019 11:00:00 9,4 5,3 7,8 5,9 5,4 7,0 22 12 38 20 SSW 1000,3 70 0 0,0
08.12.2019 10:00:00 9,1 4,4 8,3 5,4 5,4 7,0 21 11 37 20 SSW 1001,2 70 0 0,0
08.12.2019 09:00:00 8,4 3,9 7,4 5,0 5,4 7,0 20 11 37 20 SW 1002,3 70 0 0,0
08.12.2019 08:00:00 8,3 3,8 7,2 5,2 5,4 7,0 16 9 41 22 S 1003,3 70 0 0,0
08.12.2019 07:00:00 8,6 3,4 7,5 5,2 5,4 7,0 24 13 39 21 SW 1004,6 70 0 0,0
08.12.2019 06:00:00 8,3 3,7 7,5 5,1 5,4 7,0 15 8 32 18 SSW 1005,8 70 0 0,0
08.12.2019 05:00:00 7,8 3,8 7,0 4,9 5,4 7,0 14 7 26 14 SSW 1006,7 70 0 0,0
08.12.2019 04:00:00 7,2 3,6 5,8 4,7 5,5 7,0 14 7 29 16 SSW 1007,8 70 0 0,0
08.12.2019 03:00:00 7,7 3,6 6,5 5,2 5,5 6,9 14 7 23 12 SSW 1008,8 70 0 0,0
08.12.2019 02:00:00 8,2 3,5 7,3 5,5 5,5 6,9 14 7 25 14 SW 1009,9 70 0 0,0
08.12.2019 01:00:00 8,2 3,9 7,1 5,5 5,5 6,9 14 8 29 16 SW 1010,8 70 0 0,0
08.12.2019 00:00:00 8,2 4,3 7,1 5,6 5,5 6,9 13 7 31 17 SW 1011,6 70 0 0,0
07.12.2019 23:00:00 8,4 4,3 7,5 5,6 5,5 6,9 21 11 34 18 SW 1011,7 56 0 0,0
07.12.2019 22:00:00 8,1 5,0 7,2 5,5 5,5 6,9 18 10 37 20 SW 1011,8 25 0 0,0
07.12.2019 21:00:00 8,1 5,3 6,9 5,6 5,5 6,9 19 11 32 18 WSW 1011,9 22 0 0,0
07.12.2019 20:00:00 8,0 5,8 6,9 5,6 5,6 6,9 18 10 30 16 WSW 1012,3 21 0 0,0
07.12.2019 19:00:00 8,1 5,8 6,8 5,9 5,6 6,9 18 10 29 16 WSW 1011,9 29 0 0,0
07.12.2019 18:00:00 8,3 5,5 7,0 6,1 5,5 6,9 18 10 28 15 WSW 1011,6 51 0 0,0
07.12.2019 17:00:00 8,6 5,8 7,3 6,5 5,5 7,0 19 10 29 16 WSW 1011,3 51 0 0,0
07.12.2019 16:00:00 8,9 5,9 7,8 6,8 5,4 7,0 20 11 34 18 WSW 1010,5 70 0 0,0
07.12.2019 15:00:00 8,7 6,6 7,6 6,9 5,3 7,0 18 10 34 18 WSW 1010,1 47 0 0,4
07.12.2019 14:00:00 9,0 6,3 7,6 7,0 5,1 7,0 21 12 40 22 WSW 1009,5 18 0 0,0
07.12.2019 13:00:00 9,0 6,5 7,8 7,0 4,9 7,0 18 10 38 20 WSW 1009,0 23 0 0,1
07.12.2019 12:00:00 8,6 6,8 7,7 6,9 4,8 7,0 17 9 35 19 WSW 1008,9 11 0 0,4
07.12.2019 11:00:00 8,7 6,6 7,8 6,5 4,6 7,0 22 12 39 21 WSW 1008,8 41 0 0,1
07.12.2019 10:00:00 8,5 6,7 7,7 6,0 4,5 7,0 19 10 33 18 WSW 1007,9 49 0 0,0
07.12.2019 09:00:00 8,1 6,9 6,9 5,7 4,3 7,0 20 11 40 22 WSW 1006,9 52 0 0,3
07.12.2019 08:00:00 8,5 6,3 7,5 5,6 4,2 7,0 21 11 36 19 WSW 1006,0 70 0 0,0
07.12.2019 07:00:00 8,5 6,8 7,5 5,5 4,0 7,0 23 12 36 20 WSW 1005,2 70 0 0,0
07.12.2019 06:00:00 8,2 7,1 7,2 5,3 3,8 7,0 20 11 37 20 WSW 1004,0 39 0 0,5
07.12.2019 05:00:00 7,8 6,4 6,7 4,7 3,7 7,0 23 12 39 21 WSW 1002,9 10 0 0,6
07.12.2019 04:00:00 6,8 5,3 5,8 4,3 3,6 7,1 19 11 37 20 SSW 1002,2 11 0 0,0
07.12.2019 03:00:00 7,0 4,2 6,4 4,1 3,5 7,1 22 12 38 20 SSW 1002,0 70 0 0,0
07.12.2019 02:00:00 6,4 4,0 5,8 3,9 3,4 7,1 22 12 40 22 SSW 1002,5 51 0 0,0
07.12.2019 01:00:00 6,1 3,6 5,6 3,7 3,2 7,1 23 13 44 24 SSW 1003,0 52 0 0,0
07.12.2019 00:00:00 6,1 3,3 5,6 3,6 3,1 7,1 23 13 46 25 SSW 1003,7 52 0 0,0
06.12.2019 23:00:00 5,9 3,1 5,5 3,4 3,0 7,1 26 14 41 22 SSW 1003,8 44 0 0,0
06.12.2019 22:00:00 6,0 3,2 5,5 3,3 2,8 7,1 24 13 50 27 SW 1004,3 48 0 0,0
06.12.2019 21:00:00 6,0 2,9 5,4 3,0 2,7 7,1 26 14 49 26 SSW 1004,7 66 0 0,0
06.12.2019 20:00:00 5,3 2,4 4,8 2,6 2,6 7,2 22 12 50 27 SSW 1005,0 39 0 0,0
06.12.2019 19:00:00 5,0 2,0 4,5 2,3 2,5 7,2 25 14 48 26 SW 1005,4 29 0 0,0
06.12.2019 18:00:00 4,6 1,7 4,0 2,0 2,4 7,2 23 12 45 24 SW 1005,9 32 0 0,0
06.12.2019 17:00:00 4,2 0,9 3,4 1,7 2,3 7,2 27 15 47 26 SSW 1006,3 26 0 0,0
06.12.2019 16:00:00 3,6 0,4 3,1 1,2 2,2 7,2 27 14 46 25 SSW 1007,0 25 0 0,0
06.12.2019 15:00:00 3,6 0,0 3,1 0,5 2,2 7,2 26 14 41 22 SSW 1007,9 22 0 0,0
06.12.2019 14:00:00 3,1 -0,4 2,2 0,3 2,2 7,2 24 13 45 25 SSW 1008,7 17 0 0,1
06.12.2019 13:00:00 2,4 0,0 1,5 0,3 2,2 7,2 21 12 45 25 SSW 1009,5 9 0 0,2
06.12.2019 12:00:00 2,5 -0,3 1,6 0,3 2,3 7,2 29 16 44 24 SSW 1010,3 11 0 0,2
06.12.2019 11:00:00 2,2 -0,1 1,2 0,3 2,3 7,3 21 11 45 25 SSW 1011,2 8 0 0,1
06.12.2019 10:00:00 2,3 -0,3 1,3 0,3 2,3 7,3 27 14 42 23 SSW 1011,3 13 0 0,1
06.12.2019 09:00:00 2,0 -0,6 0,9 0,3 2,3 7,3 22 12 41 22 SSW 1011,4 9 0 0,1
06.12.2019 08:00:00 2,0 -1,3 1,0 0,3 2,3 7,3 20 11 36 19 SSW 1011,5 14 0 0,0
06.12.2019 07:00:00 1,5 -1,3 0,3 0,3 2,3 7,3 22 12 39 21 SW 1011,6 10 0 0,3
06.12.2019 06:00:00 1,6 -2,0 1,1 0,3 2,3 7,3 23 13 46 25 SSW 1011,4 15 0 0,0
06.12.2019 05:00:00 1,4 -1,9 0,7 0,3 2,4 7,3 24 13 44 24 SSW 1011,7 15 0 0,0
06.12.2019 04:00:00 1,0 -2,6 -0,3 0,3 2,4 7,3 26 14 40 22 SW 1012,7 15 0 0,0
06.12.2019 03:00:00 1,0 -2,6 -0,3 0,3 2,4 7,4 24 13 41 22 SW 1013,2 14 0 0,0
06.12.2019 02:00:00 1,1 -2,3 -0,3 0,3 2,4 7,4 23 12 43 23 SSW 1013,5 14 0 0,0
06.12.2019 01:00:00 1,3 -2,2 -0,1 0,3 2,4 7,4 19 10 35 19 SSW 1014,3 13 0 0,0
06.12.2019 00:00:00 1,5 -2,1 0,1 0,4 2,5 7,4 24 13 37 20 SW 1015,3 13 0 0,0
05.12.2019 23:00:00 1,4 -1,8 -0,1 0,4 2,5 7,4 18 10 31 17 SSW 1015,9 13 0 0,0
05.12.2019 22:00:00 1,6 -1,4 0,1 0,4 2,5 7,4 12 7 31 17 SSW 1016,7 14 0 0,0
05.12.2019 21:00:00 2,0 -1,1 0,5 0,4 2,5 7,4 16 8 26 14 SSW 1017,2 14 0 0,0
05.12.2019 20:00:00 2,3 -1,1 1,0 0,4 2,5 7,4 16 9 26 14 SSW 1017,6 15 0 0,0
05.12.2019 19:00:00 2,4 -1,0 0,9 0,4 2,5 7,4 17 9 25 13 SSW 1018,0 16 0 0,0
05.12.2019 18:00:00 2,1 -0,9 0,0 0,4 2,6 7,4 11 6 17 9 SW 1018,6 17 0 0,0
05.12.2019 17:00:00 2,2 -0,6 -1,0 0,4 2,6 7,5 9 5 19 10 SW 1019,0 17 0 0,0
05.12.2019 16:00:00 3,4 0,0 0,1 0,4 2,6 7,5 9 5 16 9 SSW 1019,1 21 41 0,0
05.12.2019 15:00:00 4,5 -0,3 2,6 0,5 2,6 7,5 13 7 28 15 SW 1019,0 25 60 0,0
05.12.2019 14:00:00 4,8 -0,6 4,6 0,4 2,6 7,5 14 8 34 19 SSW 1019,1 35 60 0,0
05.12.2019 13:00:00 4,9 -0,8 4,7 0,3 2,7 7,5 14 8 22 12 SW 1019,2 32 60 0,0
05.12.2019 12:00:00 4,2 -0,9 3,2 0,3 2,7 7,5 12 6 21 11 SSW 1019,6 23 60 0,0
05.12.2019 11:00:00 2,9 -0,9 2,0 0,3 2,8 7,5 10 5 17 9 SSW 1020,9 17 60 0,0
05.12.2019 10:00:00 1,5 -1,0 -0,3 0,3 2,8 7,5 7 4 16 9 SW 1021,0 21 60 0,0
05.12.2019 09:00:00 0,7 -1,5 -1,6 0,3 2,8 7,5 11 6 22 12 SW 1020,8 21 15 0,0
05.12.2019 08:00:00 -0,2 -1,5 -2,7 0,4 2,9 7,5 14 7 21 12 SW 1020,0 15 0 0,0
05.12.2019 07:00:00 -0,1 -1,4 -2,0 0,4 2,9 7,5 10 6 17 9 SSW 1019,4 17 0 0,0
05.12.2019 06:00:00 -1,8 -2,1 -3,8 0,4 3,0 7,5 8 4 15 8 S 1019,9 6 0 0,0
05.12.2019 05:00:00 -2,1 -2,6 -4,8 0,5 3,1 7,5 2 1 5 3 SSW 1020,3 4,3 0 0,0
05.12.2019 04:00:00 -2,2 -2,8 -4,5 0,5 3,1 7,5 5 3 8 5 E 1019,9 4,9 0 0,0
05.12.2019 03:00:00 -1,3 -1,5 -3,4 0,5 3,2 7,5 5 3 8 4 SE 1020,5 3,8 0 0,0
05.12.2019 02:00:00 -1,4 -1,4 -3,7 0,6 3,3 7,6 3 1 7 4 SE 1020,8 3,4 0 0,0

tt = Température de l'air
td = dewpoint
tt 5cm = Température de l'air 5cm
tt -5cm = Température de l'air -5cm
tt -20cm = Température de l'air -20cm
tt -100cm = Température de l'air -100cm
ff = Vitesse du vent
fx = gusts
dd = Direction du vent
ppp = reduced air pressure
vv = visibility
sd = Ensoleillement
rr = Quantités de précipitations

stations d'obs. à proximité